{"data":{"norad_id":64831,"intl_designator":"2025-151R","name":"KUIPER-00085","alt_names":[],"object_type":"PAYLOAD","status":"ACTIVE","operator":null,"country":"US","launch_date":"2025-07-16","launch_site_code":"AFETR","launch_vehicle":null,"mission":null,"orbit_class":"UNKNOWN","rcs_meters":null,"size_class":null,"mass_kg":null,"dimensions":null,"purposes":[],"wikipedia_slug":null,"has_3d_model":false,"image_url":null,"decayed_at":null,"tle_current":{"epoch":"2026-09-21T20:18:52.804800Z","epoch_age_seconds":55019,"freshness":"FRESH","line1":"1 64831U 25151R   26264.84644450 -.00000405  00000+0 -24169-4 0  9997","line2":"2 64831  51.9038 140.7781 0001034 113.5535 246.5536 14.79929008 64526","mean_motion":14.79929008,"eccentricity":0.0001034,"inclination_deg":51.9038,"raan_deg":140.7781,"arg_perigee_deg":113.5535,"mean_anomaly_deg":246.5536,"bstar":-2.4169e-5,"rev_number":6452,"period_min":97.30196463586,"perigee_km":628.82363630522,"apogee_km":630.27282561098,"semimajor_km":7007.6852309581,"source":"CELESTRAK","updated_at":"2026-09-22T09:00:29.977387Z"}}}